Keystone Airpark, Keystone He, FL

1:37 PM EDT on July 20, 2019 (GMT -0400)
Keystone Airpark, Keystone He

Weather History for K42J - February, 2016

Change the Weather History Date:

Friday, February 5, 2016

  Actual Average (KGNV) Record (KGNV)
Temperature  
Mean Temperature 48 °F -  
Max Temperature 57 °F 68 °F 86 °F (1957)
Min Temperature 39 °F 43 °F 18 °F (1996)
Degree Days  
Heating Degree Days 17    
Moisture  
Dew Point 30 °F    
Average Humidity 54    
Maximum Humidity 82    
Minimum Humidity 31    
Precipitation  
Precipitation 0.01 in - - ()
Sea Level Pressure  
Sea Level Pressure 30.28 in    
Wind  
Wind Speed 10 mph (NNE)    
Max Wind Speed 16 mph    
Max Gust Speed 24 mph    
Visibility 10 miles    
Events      
Averages and records for this station are not official NWS values.
T = Trace of Precipitation, MM = Missing Value Source: NWS Daily Summary

Daily Weather History Graph

Daily Weather History Graph

Search for Another Location

Airport or City:

Astronomy

Feb. 05, 2016 Rise Set
Actual Time 7:15 AM EST 6:08 PM EST
Civil Twilight 6:51 AM EST 6:33 PM EST
Nautical Twilight 6:22 AM EST 7:02 PM EST
Astronomical Twilight 5:54 AM EST 7:30 PM EST
Moon 4:33 AM EST (2/5) 3:28 PM EST (2/5)
Length of Visible Light 11h 42m
Length of Day
10h 52m
Waning Crescent, 10% of the Moon is Illuminated
Feb 5
Waning Crescent
Feb 8
New
Feb 15
First Quarter
Feb 22
Full
Mar 1
Last Quarter

Hourly Weather History & Observations

Time (EST) Temp. Windchill Dew Point Humidity Pressure Visibility Wind Dir Wind Speed Gust Speed Precip Events Conditions
12:15 AM 51.8 °F - 46.4 °F 82% 30.16 in 10.0 mi NW 9.2 mph - N/A   Clear
12:35 AM 50.0 °F - 44.6 °F 82% 30.15 in 10.0 mi NW 12.7 mph 18.4 mph N/A   Clear
12:55 AM 50.0 °F - 42.8 °F 76% 30.15 in 10.0 mi NNW 13.8 mph 18.4 mph N/A   Clear
1:15 AM 48.2 °F - 39.2 °F 71% 30.16 in 10.0 mi NNW 12.7 mph 20.7 mph N/A   Clear
1:35 AM 48.2 °F - 37.4 °F 66% 30.17 in 10.0 mi NNW 12.7 mph 23.0 mph 0.01 in   Clear
1:55 AM 48.2 °F - 37.4 °F 66% 30.18 in 10.0 mi NNW 10.4 mph 18.4 mph 0.01 in   Clear
2:15 AM 46.4 °F 41.9 °F 37.4 °F 71% 30.18 in 10.0 mi NNW 9.2 mph 18.4 mph N/A   Clear
2:35 AM 46.4 °F 40.7 °F 35.6 °F 66% 30.18 in 10.0 mi NNW 12.7 mph 20.7 mph N/A   Clear
2:55 AM 46.4 °F 39.8 °F 33.8 °F 62% 30.18 in 10.0 mi NNW 16.1 mph 24.2 mph N/A   Clear
3:15 AM 44.6 °F 39.7 °F 33.8 °F 66% 30.19 in 10.0 mi NNW 9.2 mph - N/A   Clear
3:35 AM 44.6 °F 38.8 °F 32.0 °F 61% 30.20 in 10.0 mi NNW 11.5 mph 20.7 mph N/A   Clear
3:55 AM 44.6 °F 38.8 °F 32.0 °F 61% 30.20 in 10.0 mi NNW 11.5 mph 17.3 mph N/A   Clear
4:15 AM 44.6 °F 38.1 °F 32.0 °F 61% 30.21 in 10.0 mi NNW 13.8 mph 19.6 mph N/A   Clear
4:35 AM 42.8 °F 36.2 °F 32.0 °F 66% 30.22 in 10.0 mi NNW 12.7 mph 16.1 mph N/A   Clear
4:55 AM 42.8 °F 36.6 °F 32.0 °F 66% 30.23 in 10.0 mi NNW 11.5 mph 16.1 mph N/A   Clear
5:15 AM 42.8 °F 36.6 °F 32.0 °F 66% 30.24 in 10.0 mi NNW 11.5 mph 16.1 mph N/A   Clear
5:35 AM 41.0 °F 34.3 °F 32.0 °F 70% 30.25 in 10.0 mi NNW 11.5 mph - N/A   Clear
5:55 AM 39.2 °F 33.6 °F 32.0 °F 75% 30.26 in 10.0 mi North 8.1 mph - N/A   Clear
6:15 AM 39.2 °F 34.2 °F 32.0 °F 75% 30.26 in 10.0 mi NNW 6.9 mph - N/A   Clear
6:35 AM 39.2 °F 33.0 °F 32.0 °F 75% 30.27 in 10.0 mi North 9.2 mph - N/A   Unknown
6:55 AM 39.2 °F 32.5 °F 30.2 °F 70% 30.28 in 10.0 mi North 10.4 mph - N/A   Unknown
7:15 AM 39.2 °F 32.0 °F 30.2 °F 70% 30.29 in 10.0 mi North 11.5 mph - N/A   Unknown
7:35 AM 39.2 °F 33.0 °F 30.2 °F 70% 30.30 in 10.0 mi North 9.2 mph - N/A   Unknown
7:55 AM 39.2 °F 31.6 °F 30.2 °F 70% 30.30 in 10.0 mi NNW 12.7 mph 17.3 mph N/A   Unknown
8:15 AM 39.2 °F 32.5 °F 28.4 °F 65% 30.31 in 10.0 mi NNW 10.4 mph 18.4 mph N/A   Unknown
8:35 AM 41.0 °F 33.9 °F 26.6 °F 57% 30.31 in 10.0 mi North 12.7 mph - N/A   Unknown
8:55 AM 42.8 °F 36.6 °F 23.0 °F 46% 30.32 in 10.0 mi North 11.5 mph 18.4 mph N/A   Clear
9:15 AM 42.8 °F 37.5 °F 23.0 °F 46% 30.32 in 10.0 mi North 9.2 mph 23.0 mph N/A   Clear
9:35 AM 44.6 °F 39.2 °F 23.0 °F 43% 30.32 in 10.0 mi North 10.4 mph 17.3 mph N/A   Clear
9:55 AM 44.6 °F 38.4 °F 21.2 °F 39% 30.32 in 10.0 mi North 12.7 mph 19.6 mph N/A   Clear
10:15 AM 44.6 °F 39.2 °F 21.2 °F 39% 30.32 in 10.0 mi North 10.4 mph 16.1 mph N/A   Clear
10:35 AM 46.4 °F 41.5 °F 21.2 °F 37% 30.33 in 10.0 mi North 10.4 mph - N/A   Clear
10:55 AM 46.4 °F 41.5 °F 21.2 °F 37% 30.32 in 10.0 mi North 10.4 mph - N/A   Clear
11:15 AM 48.2 °F - 23.0 °F 37% 30.32 in 10.0 mi North 9.2 mph - N/A   Clear
11:35 AM 50.0 °F - 21.2 °F 32% 30.32 in 10.0 mi NNE 10.4 mph - N/A   Clear
11:55 AM 51.8 °F - 23.0 °F 33% 30.32 in 10.0 mi NNE 9.2 mph - N/A   Clear
12:15 PM 51.8 °F - 23.0 °F 33% 30.31 in 10.0 mi NNE 10.4 mph - N/A   Clear
12:35 PM 51.8 °F - 24.8 °F 35% 30.30 in 10.0 mi NNE 8.1 mph - N/A   Clear
12:55 PM 53.6 °F - 24.8 °F 33% 30.29 in 10.0 mi NNE 8.1 mph - N/A   Clear
1:15 PM 53.6 °F - 24.8 °F 33% 30.29 in 10.0 mi NNE 10.4 mph 16.1 mph N/A   Clear
1:35 PM 55.4 °F - 26.6 °F 33% 30.28 in 10.0 mi NE 6.9 mph - N/A   Clear
1:55 PM 55.4 °F - 26.6 °F 33% 30.27 in 10.0 mi NNE 8.1 mph - N/A   Clear
2:15 PM 55.4 °F - 26.6 °F 33% 30.27 in 10.0 mi NNE 6.9 mph - N/A   Clear
2:35 PM 55.4 °F - 26.6 °F 33% 30.27 in 10.0 mi NNE 9.2 mph - N/A   Clear
2:55 PM 55.4 °F - 26.6 °F 33% 30.27 in 10.0 mi NE 10.4 mph - N/A   Clear
3:15 PM 57.2 °F - 26.6 °F 31% 30.27 in 10.0 mi NNE 8.1 mph - N/A   Clear
3:35 PM 55.4 °F - 26.6 °F 33% 30.27 in 10.0 mi NE 5.8 mph - N/A   Clear
3:55 PM 57.2 °F - 28.4 °F 33% 30.27 in 10.0 mi East 6.9 mph - N/A   Clear
4:15 PM 57.2 °F - 30.2 °F 36% 30.27 in 10.0 mi ENE 12.7 mph - N/A   Clear
4:35 PM 55.4 °F - 30.2 °F 38% 30.28 in 10.0 mi ENE 11.5 mph 17.3 mph N/A   Clear
4:55 PM 55.4 °F - 30.2 °F 38% 30.29 in 10.0 mi ENE 9.2 mph - N/A   Clear
5:15 PM 53.6 °F - 30.2 °F 41% 30.29 in 10.0 mi ENE 10.4 mph - N/A   Clear
5:35 PM 53.6 °F - 30.2 °F 41% 30.30 in 10.0 mi ENE 6.9 mph - N/A   Clear
5:55 PM 51.8 °F - 30.2 °F 44% 30.30 in 10.0 mi ENE 10.4 mph - N/A   Clear
6:15 PM 50.0 °F - 30.2 °F 47% 30.31 in 10.0 mi ENE 8.1 mph - N/A   Clear
6:35 PM 48.2 °F - 32.0 °F 54% 30.32 in 10.0 mi Calm Calm - N/A   Clear
6:55 PM 46.4 °F - 32.0 °F 57% 30.32 in 10.0 mi Calm Calm - N/A   Clear
7:15 PM 46.4 °F - 33.8 °F 62% 30.33 in 10.0 mi Calm Calm - N/A   Clear
7:35 PM 44.6 °F - 33.8 °F 66% 30.33 in 10.0 mi Calm Calm - N/A   Clear
7:55 PM 44.6 °F 41.4 °F 33.8 °F 66% 30.33 in 10.0 mi ENE 5.8 mph - N/A   Clear
8:15 PM 44.6 °F 40.7 °F 35.6 °F 71% 30.32 in 10.0 mi ENE 6.9 mph - N/A   Clear
8:35 PM 46.4 °F 43.5 °F 35.6 °F 66% 30.33 in 10.0 mi NE 5.8 mph - N/A   Clear
8:55 PM 46.4 °F 42.9 °F 35.6 °F 66% 30.33 in 10.0 mi NNE 6.9 mph - N/A   Clear
9:15 PM 46.4 °F 43.5 °F 33.8 °F 62% 30.33 in 10.0 mi NNE 5.8 mph - N/A   Clear
9:35 PM 46.4 °F 43.5 °F 33.8 °F 62% 30.33 in 10.0 mi NNE 5.8 mph - N/A   Clear
9:55 PM 46.4 °F 42.4 °F 33.8 °F 62% 30.32 in 10.0 mi NE 8.1 mph - N/A   Clear
10:15 PM 46.4 °F 41.9 °F 32.0 °F 57% 30.31 in 10.0 mi NNE 9.2 mph - N/A   Clear
10:35 PM 46.4 °F 41.1 °F 32.0 °F 57% 30.30 in 10.0 mi NNE 11.5 mph - N/A   Clear
10:55 PM 46.4 °F 41.9 °F 32.0 °F 57% 30.30 in 10.0 mi NE 9.2 mph - N/A   Clear
11:15 PM 46.4 °F 42.4 °F 32.0 °F 57% 30.30 in 10.0 mi NE 8.1 mph - N/A   Clear
11:35 PM 46.4 °F 42.4 °F 32.0 °F 57% 30.31 in 10.0 mi NE 8.1 mph - N/A   Mostly Cloudy
11:55 PM 48.2 °F - 32.0 °F 54% 30.30 in 10.0 mi NE 10.4 mph - N/A   Overcast